コワル-ヴァーヴロヴァー彗星

134P/Kowal-Vavrova (2014)

English version
Home page
Updated on April 6, 2013

---------------------------------------------------------------------

・ プロフィール

・ 軌道要素

Epoch 2014 May 23.0 TT = JDT 2456800.5
T 2014 May 21.51076 TT                                  MPC
q   2.5713510            (2000.0)            P               Q
n   0.06336083     Peri.   18.58409     -0.75840360     +0.65115936
a   6.2314459      Node   202.12261     -0.60720287     -0.72177529
e   0.5873588      Incl.    4.34883     -0.23691487     -0.23458883
P  15.6
From 72 observations 1983 May 8-2013 Jan. 17, mean residual 0".6.
     Nongravitational parameters Y1 = -0.33, Y2 = +0.0098.

・ 星図

・ 光度変化

        m1 = 0 + 5 logΔ + 30 log r(t - 80)

---------------------------------------------------------------------

軌道要素はM.P.E.C. 2013-B90に掲載されたものです。
星図はステラナビゲータ Ver.8 (アストロアーツ) で作成したものです。
光度グラフはComet for Windowsで作成したものです。

---------------------------------------------------------------------

Copyright(C) Seiichi Yoshida (comet@aerith.net). All rights reserved.